EDT,Max TemperatureF,Mean TemperatureF,Min TemperatureF,Max Dew PointF,MeanDew PointF,Min DewpointF,Max Humidity, Mean Humidity, Min Humidity, Max Sea Level PressureIn, Mean Sea Level PressureIn, Min Sea Level PressureIn, Max VisibilityMiles, Mean VisibilityMiles, Min VisibilityMiles, Max Wind SpeedMPH, Mean Wind SpeedMPH, Max Gust SpeedMPH,PrecipitationIn, CloudCover, Events, WindDirDegrees
2011-9-1,69,56,43,54,49,43,100,88,49,30.31,30.26,30.20,10,6,0,13,4,15,0.00,1,Fog,168
2011-9-2,73,62,50,57,54,50,100,79,57,30.18,30.07,29.91,10,10,7,13,7,17,0.00,1,,148
2011-9-3,74,65,55,67,60,54,100,93,73,29.91,29.81,29.78,10,5,0,15,6,18,0.56,6,Fog-Rain-Thunderstorm,193
2011-9-4,69,60,51,68,59,51,100,96,82,29.93,29.82,29.71,10,4,0,16,6,24,0.36,6,Fog-Rain,129
2011-9-5,66,60,53,66,63,54,100,99,93,29.86,29.77,29.71,9,3,0,13,6,16,0.89,8,Fog-Rain-Thunderstorm,218
2011-9-6,63,55,47,55,51,46,100,92,67,30.29,30.04,29.86,10,7,0,16,9,22,0.29,7,Fog-Rain,330
2011-9-7,60,53,46,54,50,46,100,95,78,30.36,30.30,30.17,10,6,0,13,5,16,0.01,5,Fog-Rain,173
2011-9-8,71,61,51,54,52,49,100,84,47,30.16,30.05,29.88,10,10,8,14,6,18,0.00,3,,245
2011-9-9,71,60,49,53,48,39,97,68,40,29.86,29.75,29.64,10,10,9,26,12,33,0.00,1,,296
2011-9-10,56,48,40,41,39,37,86,70,51,30.09,29.94,29.77,10,10,10,22,9,29,0.00,3,,318
2011-9-11,67,53,39,51,43,37,97,70,40,30.10,29.97,29.81,10,10,10,18,8,25,0.00,0,,199
2011-9-12,67,58,49,55,52,46,93,76,59,29.94,29.83,29.75,10,10,9,17,8,25,0.00,3,,276
2011-9-13,75,61,47,63,55,44,100,87,57,29.94,29.78,29.66,10,7,1,30,9,41,0.48,6,Rain-Thunderstorm,156
2011-9-14,63,55,46,61,49,43,100,81,59,29.97,29.83,29.67,10,9,2,18,8,21,0.00,5,,299
2011-9-15,50,47,44,50,47,44,100,97,86,29.97,29.90,29.81,10,3,0,18,3,24,0.57,7,Fog-Rain,17
2011-9-16,53,46,39,42,38,36,90,75,59,30.10,29.93,29.82,10,10,5,26,15,36,0.01,5,Rain,294
2011-9-17,58,49,39,40,37,35,89,68,45,30.45,30.31,30.12,10,10,9,24,10,32,0.00,1,,297
2011-9-18,63,50,37,45,40,37,100,75,40,30.55,30.48,30.40,10,8,2,8,1,8,0.00,0,,247
2011-9-19,62,50,38,47,42,37,100,85,46,30.40,30.30,30.06,10,6,0,9,3,17,0.00,0,Fog,139
2011-9-20,53,47,40,52,47,39,100,98,89,30.05,30.00,29.95,9,4,0,9,4,12,0.06,5,Fog-Rain,162
2011-9-21,67,57,47,54,49,48,100,87,51,30.19,30.12,30.04,10,5,0,16,6,21,0.00,2,Fog,258
2011-9-22,70,58,45,61,54,45,100,92,73,30.19,30.13,30.07,9,6,0,22,7,32,T,5,Fog-Rain,139
2011-9-23,74,67,59,63,59,54,100,88,53,30.14,30.11,30.08,9,5,0,10,4,15,0.00,6,Fog,261
2011-9-24,71,63,55,63,58,51,100,90,75,30.12,30.07,30.01,9,5,0,8,4,14,0.00,4,Fog,104
2011-9-25,77,65,52,61,57,54,100,90,53,30.04,30.00,29.92,10,4,0,21,9,25,0.00,1,Fog,290
2011-9-26,72,63,54,61,55,49,100,75,51,29.95,29.92,29.88,10,8,4,23,10,31,0.01,0,,302
2011-9-27,64,54,44,50,41,36,96,65,37,30.16,30.07,29.95,10,10,5,16,6,21,0.00,0,,351
2011-9-28,66,52,38,52,45,36,97,79,58,30.17,30.10,30.00,10,10,8,16,9,22,0.00,1,,152
2011-9-29,64,58,52,55,52,49,100,87,65,29.99,29.81,29.51,10,8,2,17,10,23,0.12,7,Rain,150
2011-9-30,66,60,54,56,54,51,100,91,60,29.73,29.50,29.41,10,6,0,20,9,26,0.08,7,Fog-Rain,177